CZ-6A DEB

Satellite information

Favourite Embed

Satellite Type and Status

DEBRISIN ORBIT

Key statistics

Satellite CZ-6A DEB at a glance.

Uptime

494

Days in orbit

Revolutions

≈ 14.6

Per day

Orbit

LEO

Low Earth Orbit

Inclination

89.0

Latest

Satellite identification and parameters

Extended collection of information and parameters for CZ-6A DEB.

Object identification

Identified? True

Debris? True

Object name: CZ-6A DEB

International designator: 2024-140TM

Object number (NORAD): 61300

Object ID (CCSDS): 61300

Country: PEOPLES REPUBLIC OF CHINA (PRC)

Current information (Y/N): Y

RCS size: SMALL

Orbital parameters

Period: 98.558 minutes

Inclination: 89.0384 deg

SMA: 7067.875 km

Apoapsis: 788.968 km

Periapsis: 590.512 km

RAAN: 294.747 deg

Eccentricy: 0.0140393

Argument of periapsis: 196.0292 deg

Mean anomaly: 163.6458 deg

Mean motion: 14.61064681 rev/day

Mean motion (dot): 0.00006682 rev/day2

B* drag term: 0.0011795 1/REarth

Two-line elements (TLE)

Creation date: Dec. 12, 2025, 7:26 a.m.

Reference frame: TEME

Reference center: EARTH

Epoch: Dec. 11, 2025, 9:33 p.m. UTC

TLE line 0: 0 CZ-6A DEB

TLE line 1: 1 61300U 24140TM 25345.89850730 .00006682 00000-0 11795-2 0 9997

TLE line 2: 2 61300 89.0384 294.7470 0140393 196.0292 163.6458 14.61064681 68572

Live tracking on map

Real-time ground track for satellite CZ-6A DEB.

In-orbit conjunctions

A list of the most updated potential collisions computed for object CZ-6A DEB.

Target Orbit TCA Probability of collision Miss distance Type
IRIDIUM 33 DEB LEO 2025-06-07 02:08:21 0.0002437536 63.0 (m) DEBRIS
PICOSAT 1&2 (TETHERED) SSO 2025-06-06 20:38:04 0.0002777734 472.0 (m) PAYLOAD
CZ-6A DEB LEO 2024-12-30 23:23:26 0.0002745634 643.0 (m) DEBRIS
CBERS 1 DEB SSO 2024-12-23 04:08:09 0.0003323001 147.0 (m) DEBRIS
MOZ.5/SAFIR/RUBIN 5/SL-8 SSO 2024-12-19 21:45:54 0.0002633657 740.0 (m) PAYLOAD

Associated space launch

18 Low Earth Orbit communication satellites with Ku, Q and V band payloads for the G60 constellation operated by Shanghai Spacecom Satellite Technology (SSST) with funding backed by the Shanghai local government. Initial constellation will consist of 1296 satellites by 2027 with long term plans to expand it to 12000 satellites.

CZ-6A DEB was lifted into orbit during the mission ‘Long March 6A | G60 Polar Group 01’, on board a Long March 6A space rocket.

The launch took place on Aug. 6, 2024, 6:42 a.m. from Launch Complex 9A.

For more information about the launch, click the button.

Launch to space Long March 6A | G60 Polar Group 01
Long March 6A | G60 Polar Group 01

Agency: N/A

Status: Launch Successful

Launch date: Aug. 6, 2024, 6:42 a.m. UTC

Rocket: Long March 6A

Launch pad: Launch Complex 9A

Location: Taiyuan Satellite Launch Center, People's Republic of China

...

Latest news about this satellite

News about space launch
Brightness of first Chinese broadband constellation satellites alarms astronomers

The first satellites of a Chinese broadband constellation are significantly brighter than those of Western systems, posing a new challenge for astronomers.

News about space launch
Chinese rocket stage breaks up into cloud of more than 700 pieces of space debris

HELSINKI — A Chinese Long March 6A rocket’s upper stage has fragmented into a cloud of over 700 pieces of space debris, adding to concerns about long-term orbital safety. China […]

News about space launch
China's Thousand Sails Megaconstellation Kicks Off with Dangerous Debris Field

China's Thousand Sails Megaconstellation Kicks Off with Dangerous Debris Field


Newsletter sign-up

Weekly statistics, charts and insights to help you stay on top of the space industry.